www.pogodaiklimat.ru

Погода и климат >> Архив погоды >> Россия >> Нижегородская область >> Нижний Новгород аэропорт


ПОГОДА в Нижнем Новгороде аэропорт

  • Прогноз погоды в Нижнем Новгороде аэропорт
  • Монитор погоды в Нижнем Новгороде аэропорт
  • Климат города

АРХИВ ПОГОДЫ в Нижнем Новгороде аэропорт

Время (UTC), дата Ветер
(напр.,м/с)
 
Видим.   Явления Облачность Т
(С)
Тd
(С)
f
(%)
Тe
(С)
Тes
(С)
Комфортность P
(гПа)
Po
(гПа)
Тmin
(С)
Tmax
(С)
R
(мм)
R24
(мм)
S
(см)
06 14.02 штиль 0 5000 м дымка ясно -17.6 -19.6 84 -18 -16 1034.2 1034.0 -21.7
09 14.02 штиль 0 4000 м дымка ясно -7.8 -11.9 72 -8 -4 1035.0 1035.0
12 14.02 ЮВ 2-3
{5}
10 км ясно -6.3 -10.8 70 -10 -9 1034.7 1035.0
15 14.02 СВ 1-1
{4}
7000 м ясно -10.8 -13.7 79 -13 -13 1035.6 1036.0 -4.3
18 14.02 штиль 0
{3}
6000 м ясно -13.3 -14.8 88 -13 -13 1036.1 1036.0
21 14.02 Ю 1-2
{3}
6000 м ясно -16.7 -18.5 86 -19 -19 1036.9 1037.0
00 15.02 штиль 0
{1}
5000 м ясно -18.5 -20.4 85 -19 -19 1037.8 1038.0
03 15.02 штиль 0 4400 м дымка ясно -21.0 -23.2 82 -21 -21 1038.4 1038.0 -21.1 8
06 15.02 штиль 0 4500 м дымка 4/0
[Ci fib]
-16.2 -18.1 85 -16 -15 1039.0 1039.0 -22.0
09 15.02 нст 1-2
{2}
5000 м дымка 4/0
[Ci fib]
-8.9 -14.1 66 -11 -8 1039.5 1040.0
12 15.02 В 3-4
{4}
10 км ясно -7.2 -11.9 69 -13 -12 1039.4 1039.0
15 15.02 ЮВ 3-4
{6}
9000 м ясно -10.6 -13.7 78 -17 -17 1039.5 1040.0 -6.4
18 15.02 штиль 0-2
{4}
7000 м ясно -12.3 -15.0 80 -12 -12 1039.6 1040.0
21 15.02 Ю 1-2
{3}
7000 м ясно -14.4 -16.3 85 -17 -17 1039.8 1040.0
00 16.02 ЮВ 1-2
{4}
6000 м 6/6 1000 м
[Sc]
-13.6 -15.7 84 -16 -16 1039.4 1039.0
03 16.02 Ю 3-4
{4}
9000 м 10/10 1000 м
[Sc]
-11.2 -13.6 82 -17 -17 1038.7 1039.0 -15.2 8
06 16.02 Ю 4-5
{5}
9000 м 9/9 1200 м
[Sc]
-9.6 -12.5 79 -17 -16 1038.5 1039.0
09 16.02 Ю 3-4
{6}
5000 м слабый снег 10/10 360 м
[Sc]
-6.8 -10.1 77 -12 -12 1038.0 1038.0
12 16.02 Ю 5-6
{6}
9000 м слабый ливневой снег 10/10 360 м
[Cb cap]
-4.6 -7.7 79 -12 -12 1037.0 1037.0
15 16.02 Ю 3-4
{6}
9000 м слабый снег {ливн. осадки} 10/8 420 м
[Sc Ac As]
-3.8 -6.7 80 -9 -9 1036.3 1036.0 -3.7 0.0
18 16.02 Ю 5-6
{6}
10 км слабый снег {ливн. осадки} 10/6 450 м
[Sc Ac As]
-3.5 -7.4 74 -10 -10 1035.8 1036.0
21 16.02 Ю 4-5
{7}
10 км {ливн. осадки} 10/4 600 м
[Sc Ac As]
-4.3 -8.6 72 -10 -10 1035.3 1035.0
00 17.02 Ю 3-4
{4}
10 км {снег} 10/3 600 м
[Sc Ac As]
-5.1 -8.6 76 -10 -10 1035.1 1035.0
03 17.02 Ю 2-4
{4}
10 км 10/0
[Ac As]
-5.9 -9.9 73 -10 -10 1034.0 1034.0 -6.2 0.0 8
06 17.02 Ю 5-6
{7}
10 км 9/0
[Ac trans]
-6.3 -10.5 72 -13 -13 1033.4 1033.0 -6.5
09 17.02 ЮВ 4-6
{8}
10 км 8/0
[Ac trans]
-5.5 -10.4 68 -12 -11 1032.4 1032.0
12 17.02 ЮВ 5-8
{8}
7000 м слабый снег 9/6 400 м
[Sc Ac trans]
-4.9 -9.3 71 -12 -12 1031.1 1031.0
15 17.02 ЮВ 5-8
{8}
9000 м слабый снег 10/8 420 м
[Sc Ac trans]
-5.9 -8.9 79 -13 -13 1030.4 1030.0 -4.4 0.0
18 17.02 ЮВ 6-8
{9}
8000 м слабый снег 10/8 360 м
[Sc Ac trans]
-5.9 -8.3 83 -14 -14 1029.6 1030.0
21 17.02 Ю 5-7
{8}
10 км в посл. час снег 10/6 600 м
[Sc Ac As]
-5.4 -9.3 74 -12 -12 1028.6 1029.0
00 18.02 ЮВ 4-5
{7}
10 км {снег} 10/8 1000 м
[Sc Ac As]
-5.3 -9.9 70 -12 -12 1027.5 1028.0
03 18.02 ЮВ 5-7
{8}
10 км 10/6 1000 м
[Sc Ac As]
-6.3 -11.4 67 -13 -13 1026.4 1026.0 -6.4 0.0 8
06 18.02 Ю 4-6
{8}
10 км 10/6 1200 м
[Sc Ac As]
-6.8 -9.6 80 -13 -13 1025.8 1026.0 -7.3
09 18.02 ЮВ 4-6
{8}
3400 м слабый снег 10/9 300 м
[Sc Ac As]
-5.4 -8.4 79 -12 -12 1025.0 1025.0
12 18.02 ЮВ 5-8
{8}
1900 м ливневой снег 10/10 300 м
[Cb cap]
-4.8 -7.1 84 -12 -12 1023.5 1024.0
15 18.02 ЮВ 5-7
{8}
5000 м слабый снег {ливн. осадки} 10/10 330 м
[Sc]
-5.1 -7.4 84 -12 -12 1022.2 1022.0 -4.4 1
18 18.02 ЮВ 3-5
{6}
2000 м снег {ливн. осадки} 10/10 210 м
[Sc]
-6.2 -7.7 89 -12 -12 1021.6 1022.0
21 18.02 ЮВ 2-3
{6}
2900 м слабый снег 10/10 210 м
[Frnb Ns]
-6.6 -8.1 89 -11 -11 1020.3 1020.0
00 19.02 ЮВ 2-3
{4}
5000 м слабый снег 10/10 330 м
[Frnb Ns]
-7.3 -8.9 88 -12 -12 1019.3 1019.0
03 19.02 Ю 2-3
{3}
9000 м слабый снег 10/10 300 м
[Frnb Ns]
-8.0 -9.1 92 -13 -13 1018.3 1018.0 -8.2 2 10
06 19.02 Ю 3-3
{4}
10 км {снег} 6/4 300 м
[Sc Ci fib]
-8.9 -10.5 88 -15 -14 1018.2 1018.0 -9.6
09 19.02 Ю 3-4
{5}
4200 м слабый снег 9/6 400 м
[Sc Ac trans Ci fib]
-5.7 -8.7 79 -11 -10 1018.4 1018.0
12 19.02 Ю 2-2
{5}
9000 м слабый снег 9/6 330 м
[Frnb Ac trans Ci fib]
-5.5 -7.9 83 -10 -9 1017.9 1018.0
15 19.02 штиль 0-1
{4}
10 км слабый снег 9/8 420 м
[Frnb Ac trans]
-5.1 -7.4 84 -6 -6 1017.5 1018.0 -4.4 0.4
18 19.02 Ю 2-3
{4}
9000 м {снег} 9/9 330 м
[Sc]
-5.4 -7.1 88 -10 -10 1017.1 1017.0
21 19.02 Ю 2-3
{5}
8000 м слабый снег 10/10 360 м
[Sc]
-5.4 -6.9 89 -10 -10 1016.1 1016.0
00 20.02 штиль 0-3
{5}
5000 м слабый снег 10/10 420 м
[Sc]
-5.7 -6.6 93 -7 -7 1015.5 1016.0
03 20.02 штиль 0
{2}
5000 м слабый снег {ливн. осадки} 10/10 500 м
[Sc]
-5.7 -6.5 94 -7 -7 1014.8 1015.0 -5.9 0.3 11
06 20.02 З 1-2
{2}
3900 м слабый снег {ливн. осадки} 10/10 210 м
[Sc]
-5.1 -5.9 94 -8 -8 1014.7 1015.0 -6.7
09 20.02 З 3-5
{5}
9000 м слабый снег 10/10 400 м
[Sc]
-4.4 -7.8 77 -10 -10 1014.9 1015.0
12 20.02 З 2-4
{6}
9000 м слабый снег 9/9 400 м
[Sc]
-5.0 -7.6 82 -9 -9 1014.7 1015.0
15 20.02 З 1-2
{6}
8000 м {снег} 9/9 420 м
[Sc]
-7.5 -10.3 80 -10 -10 1015.4 1015.0 -3.9 0.3
18 20.02 З 1-2
{3}
5000 м слабый снег 9/9 420 м
[Sc]
-8.6 -9.7 92 -11 -11 1015.8 1016.0
21 20.02 З 2-3
{4}
4600 м слабый снег 9/9 360 м
[Sc]
-9.4 -10.6 91 -14 -14 1015.8 1016.0
00 21.02 З 2-3
{4}
6000 м слабый снег 10/10 300 м
[Sc]
-10.7 -12.1 89 -15 -15 1016.5 1017.0

 

Местоположение метеостанции Нижний Новгород аэропорт (Нижегородская область, Россия): широта 56.22 долгота 43.77 высота над уровнем моря 77 м.

В архиве по умолчанию представлена погода в Нижнем Новгороде аэропорт за последнюю неделю. Архивные данные за месяц целиком и за предыдущие месяцы, начиная с января 2011 года, Вы можете получить, выбрав интересующий диапазон дат из раскрывающегося списка и нажав кнопку "Ввод!".

Внимание! Время в таблицах - всемирное. Для получения местного времени необходимо прибавить поправку, которая в Нижнем Новгороде аэропорт равна 3 ч.

Смотрите также архив погоды в соседних городах и на ближайших метеорологических станциях:

Погода в Нижнем Новгороде (Нижегородская область, Россия) (15 км)
Погода в Дальнем Константиново (Нижегородская область, Россия) (51 км)
Погода в Павлово (Нижегородская область, Россия) (55 км)
Погода в Волжской ГМО (Нижегородская область, Россия) (55 км)
Погода в Семенове (Нижегородская область, Россия) (73 км)
Погода в Лысково (Нижегородская область, Россия) (82 км)
Погода в Арзамасе (Нижегородская область, Россия) (95 км)
Погода в Вязниках (Владимирская область, Россия) (99 км)
Погода в Воскресенском (Нижегородская область, Россия) (121 км)
Погода в Муроме (Владимирская область, Россия) (129 км)

Пояснения к столбцам:

Ветер - указаны скорость ветра в м/с - средняя за 10 мин, порывы в срок и между сроками (в фигурных скобках) и направление, откуда дует ветер: С - северный, СВ - северо-восточный, В - восточный, ЮВ - юго-восточный, Ю - южный, ЮЗ - юго-западный, З - западный, СЗ - северо-западный.
Видимость - горизонтальная дальность видимости в метрах или километрах. При видимости от 1 до 10 км при отсутствии осадков обычно наблюдается дымка, при ухудшении видимости до 1 км и менее - туман. В сухую погоду видимость может ухудшаться дымом, пылью или мглою.
Явления - указаны атмосферные явления, наблюдавшиеся в срок или в последний час перед сроком; фигурными скобками обозначены явления, наблюдавшиеся между сроками (за 1-3 часа до срока); квадратными скобками обозначены град или гололедные отложения с указанием их диаметра в мм.
Облачность - указаны через наклонную черту общая и нижняя облачность в баллах и высота нижней границы облаков в метрах; квадратными скобками обозначены формы облаков: Ci - перистые, Cs - перисто-слоистые, Cc - перисто-кучевые, Ac - высококучевые, As - высокослоистые, Sc - слоисто-кучевые, Ns - слоисто-дождевые, Cu - кучевые, Cb - кучево-дождевые. Подробнее классификацию облаков см. в Атласе облаков (PDF).
T - Температура воздуха - температура, измеренная на высоте 2 м над землей.
Td - Температура точки росы - температура, при понижении до которой содержащийся в воздухе водяной пар достигнет насыщения.
f - Относительная влажность воздуха - влажноcть воздуха, измеренная на высоте 2 м над землей.
Te - Эффективная температура - температура, которую ощущает одетый по сезону человек в тени. Характеристика душности погоды. При расчете учитывается влияние влажности воздуха и скорости ветра на теплоощущения человека.
Tes - Эффективная температура на солнце - температура, которую ощущает человек, с поправкой на солнечный нагрев. Характеристика знойности погоды. Зависит от высоты солнца над горизонтом, облачности и скорости ветра. Ночью, в пасмурную погоду, а также при ветре 12 м/с и более поправка равна нулю.
P - Атмосферное давление - приведенное к уровню моря атмосферное давление.
Po - Атмосферное давление - измеренное на уровне метеостанции атмосферное давление.
Tmin - Минимальная температура - минимум температуры воздуха на высоте 2 м над землей.
Tmax - Максимальная температура - максимум температуры воздуха на высоте 2 м над землей.
R - Количество осадков - Количество выпавших осадков за период времени, мм. При наведении курсора мыши на число - период времени, за который выпало указанное количество осадков.
R24 - Количество осадков - Количество выпавших осадков за 24 часа, мм.
S - Снежный покров - Высота снежного покрова, см. При наведении курсора мыши на число - состояние снежного покрова и степень покрытия местности в баллах.